Total_Precipitation_Accumulation
1.88 2.00 2.00 1.94 1.95 1.99 2.10 2.29 2.53 2.45 2.25 1.99 1.88 1.77 1.72 1.72 1.83 1.56 1.52 1.48 1.42 1.43 1.44 1.47 1.55 1.73 1.81 1.81 1.67 1.58 1.58 1.64 1.77 1.90 2.12 2.40 2.74 3.06
1.75 1.73 1.69 1.65 1.77 1.78 1.87 1.99 2.18 2.37 2.25 1.86 1.76 1.76 1.76 1.65 1.89 1.69 1.59 1.56 1.49 1.65 1.76 1.70 1.67 1.84 1.99 2.02 1.83 1.66 1.61 1.61 1.65 1.68 1.77 1.95 2.22 2.51
1.39 1.36 1.38 1.47 1.62 1.63 1.66 1.79 2.00 2.20 2.28 1.88 1.71 1.81 1.94 1.88 1.92 1.84 1.69 1.68 1.66 2.00 2.15 2.34 2.10 2.00 2.08 2.12 2.04 1.81 1.65 1.59 1.64 1.71 1.80 1.92 1.99 2.10
1.28 1.32 1.32 1.39 1.52 1.55 1.62 1.68 1.84 2.09 2.25 2.17 1.93 1.94 1.98 1.95 2.02 2.00 1.79 1.65 1.66 2.10 2.32 2.60 2.55 2.27 2.27 2.16 2.06 1.87 1.71 1.59 1.59 1.63 1.68 1.74 1.81 1.91
1.20 1.27 1.34 1.56 1.59 1.57 1.63 1.67 1.76 1.89 2.19 2.23 2.03 2.03 2.07 2.08 2.26 2.10 1.93 1.91 1.60 1.89 2.29 2.60 2.69 2.68 2.73 2.62 2.36 2.02 1.78 1.58 1.45 1.43 1.48 1.52 1.55 1.57
1.19 1.26 1.34 1.52 1.60 1.67 1.66 1.72 1.78 1.93 2.11 2.23 2.17 2.14 2.20 2.25 2.29 2.23 2.10 1.96 1.76 1.68 2.13 2.54 2.83 2.88 3.01 3.11 2.84 2.39 2.02 1.72 1.49 1.33 1.23 1.19 1.25 1.27
1.14 1.15 1.21 1.31 1.44 1.44 1.35 1.47 1.68 1.93 2.00 2.19 2.22 2.23 2.20 2.29 2.18 1.97 1.92 1.90 1.74 1.63 1.83 2.18 2.84 3.15 3.17 3.25 3.16 2.67 2.24 1.89 1.59 1.38 1.24 1.15 1.15 1.18
1.14 1.13 1.09 1.06 1.04 1.05 1.10 1.18 1.37 1.66 2.01 2.26 2.20 2.18 2.08 2.01 2.02 1.97 1.99 2.03 1.97 1.66 1.63 1.86 2.41 3.17 3.36 3.27 3.22 2.64 2.13 1.82 1.61 1.43 1.32 1.25 1.22 1.24
1.32 1.28 1.00 0.86 0.98 1.00 1.05 1.12 1.25 1.43 1.74 2.13 2.23 2.04 2.00 1.96 2.03 2.04 2.10 2.14 2.01 1.72 1.78 1.98 2.30 2.94 3.07 3.01 2.94 2.32 1.88 1.63 1.46 1.35 1.27 1.22 1.19 1.22
1.22 1.24 1.23 1.12 1.04 1.12 1.18 1.25 1.35 1.47 1.58 1.68 2.03 1.88 1.70 1.77 1.91 1.97 2.10 2.14 2.02 1.83 1.87 2.14 2.33 2.76 2.70 2.73 2.62 2.13 1.76 1.55 1.36 1.24 1.18 1.17 1.16 1.19
1.08 1.07 1.04 1.07 1.17 1.33 1.43 1.63 1.73 1.82 1.70 1.84 1.99 1.93 1.80 1.78 1.72 1.86 2.19 2.27 2.11 1.92 1.93 2.23 2.34 2.42 2.50 2.52 2.24 2.03 1.73 1.53 1.36 1.24 1.17 1.12 1.09 1.15
1.12 1.09 0.98 0.93 1.09 1.27 1.48 1.80 1.95 2.02 1.87 1.95 2.20 2.20 2.01 2.03 2.05 1.99 2.24 2.37 2.27 2.15 1.90 2.03 2.20 2.23 2.40 2.29 2.09 1.93 1.83 1.79 1.58 1.39 1.28 1.14 1.05 1.01
1.07 1.11 1.07 0.99 1.05 1.28 1.50 1.71 1.87 1.93 1.98 2.08 2.09 2.08 2.15 2.16 2.17 2.14 2.20 2.25 2.23 2.09 1.78 1.96 2.16 2.21 2.30 2.27 2.20 2.18 2.11 2.01 1.82 1.71 1.64 1.47 1.28 1.13
1.14 1.12 1.14 1.13 1.15 1.35 1.49 1.73 1.94 2.02 2.00 2.09 1.97 1.85 1.82 1.84 1.92 1.94 1.97 1.96 1.92 1.86 1.81 1.95 2.22 2.39 2.34 2.21 2.29 2.28 2.34 2.37 2.23 2.11 1.97 1.85 1.66 1.57
1.07 1.15 1.16 1.16 1.25 1.51 1.68 1.87 2.05 2.14 2.19 2.08 1.87 1.75 1.64 1.61 1.62 1.74 1.85 1.88 1.78 1.62 1.54 1.72 2.05 2.27 2.36 2.29 2.37 2.40 2.49 2.61 2.52 2.47 2.32 2.14 2.00 1.83
1.00 1.16 1.27 1.31 1.42 1.69 1.90 2.09 2.17 2.11 1.98 1.92 1.82 1.74 1.61 1.56 1.60 1.57 1.65 1.74 1.77 1.71 1.59 1.62 1.91 2.26 2.38 2.24 2.29 2.40 2.50 2.79 2.69 2.48 2.36 2.33 2.23 2.04
0.93 1.11 1.29 1.42 1.57 1.76 1.95 2.01 2.01 1.93 1.85 1.68 1.61 1.69 1.67 1.59 1.60 1.56 1.57 1.60 1.68 1.71 1.71 1.73 1.80 1.95 2.02 2.10 2.26 2.31 2.44 2.62 2.63 2.44 2.30 2.35 2.35 2.18
0.92 1.14 1.31 1.40 1.57 1.75 1.90 1.90 1.83 1.74 1.65 1.55 1.47 1.44 1.44 1.43 1.47 1.50 1.45 1.47 1.52 1.47 1.44 1.52 1.66 1.84 1.87 1.89 2.05 2.20 2.27 2.42 2.41 2.27 2.09 2.14 2.30 2.28
0.89 1.12 1.26 1.39 1.59 1.71 1.70 1.67 1.67 1.61 1.53 1.47 1.42 1.33 1.26 1.23 1.23 1.23 1.23 1.27 1.25 1.21 1.19 1.25 1.40 1.61 1.76 1.90 1.90 1.94 2.08 2.18 2.12 1.99 1.90 1.95 2.14 2.27
0.85 1.08 1.24 1.34 1.46 1.56 1.60 1.61 1.58 1.51 1.43 1.38 1.43 1.40 1.30 1.23 1.13 1.12 1.13 1.11 1.11 1.09 1.07 1.02 0.99 1.13 1.36 1.52 1.69 1.73 1.71 1.75 1.79 1.83 1.76 1.78 1.91 1.97
0.86 1.03 1.16 1.28 1.31 1.30 1.36 1.40 1.44 1.43 1.37 1.33 1.31 1.30 1.25 1.18 1.08 1.00 0.98 0.90 0.93 1.03 1.02 0.93 0.87 0.92 1.05 1.22 1.37 1.38 1.36 1.48 1.52 1.52 1.50 1.56 1.62 1.59
0.84 0.96 1.05 1.12 1.12 1.11 1.12 1.14 1.20 1.24 1.22 1.17 1.15 1.17 1.15 1.08 1.03 0.98 0.96 0.94 0.93 0.91 0.87 0.86 0.89 0.93 1.01 1.17 1.27 1.30 1.26 1.21 1.27 1.31 1.32 1.35 1.37 1.54
0.80 0.83 0.88 0.93 0.93 0.96 0.99 1.02 1.06 1.09 1.10 1.09 1.04 1.03 1.01 1.00 0.96 0.95 0.95 0.93 0.90 0.86 0.86 0.88 0.87 0.87 0.88 0.97 1.09 1.14 1.14 1.15 1.17 1.19 1.20 1.30 1.28 1.32